This is the latest recevied weather packets stored in our database for station/object W7TJC. If no packets are shown the sender has not sent any weather packets the latest 10 day(s).
| Time | Temp. | Humidity | Pressure | Rain* | Wind** | Luminosity | Snow |
|---|---|---|---|---|---|---|---|
| 1777628259 | 12.22° C | 79% | 1017.6 hPa | 0 mm | - | 0 W/m² | - |
| 1777627955 | 12.22° C | 79% | 1017.4 hPa | 0 mm | - | 0 W/m² | - |
| 1777627654 | 12.22° C | 79% | 1017.6 hPa | 0 mm | - | 0 W/m² | - |
| 1777627354 | 11.67° C | 80% | 1017.4 hPa | 0 mm | - | 0 W/m² | - |
| 1777627052 | 12.22° C | 81% | 1017.3 hPa | 0 mm | - | 0 W/m² | - |
| 1777626747 | 12.22° C | 80% | 1017.4 hPa | 0 mm | - | 0 W/m² | - |
| 1777626444 | 11.67° C | 81% | 1017.4 hPa | 0 mm | - | 0 W/m² | - |
| 1777626143 | 12.22° C | 81% | 1017.5 hPa | 0 mm | - | 0 W/m² | - |
| 1777625842 | 12.22° C | 80% | 1017.3 hPa | 0 mm | - | 0 W/m² | - |
| 1777625539 | 11.67° C | 81% | 1017.4 hPa | 0 mm | - | 0 W/m² | - |
| 1777625234 | 11.67° C | 81% | 1017.4 hPa | 0 mm | - | 0 W/m² | - |
| 1777624931 | 11.67° C | 81% | 1017.4 hPa | 0 mm | - | 0 W/m² | - |
| 1777624627 | 11.67° C | 81% | 1017.3 hPa | 0 mm | - | 0 W/m² | - |
| 1777624322 | 12.22° C | 81% | 1017.5 hPa | 0 mm | - | 0 W/m² | - |
| 1777624020 | 12.22° C | 81% | 1017.3 hPa | 0 mm | - | 0 W/m² | - |
| 1777623717 | 12.78° C | 81% | 1017.5 hPa | 0 mm | - | 0 W/m² | - |
| 1777623414 | 12.78° C | 78% | 1017.5 hPa | 0 mm | - | 0 W/m² | - |
| 1777623110 | 13.33° C | 76% | 1017.4 hPa | 0 mm | - | 0 W/m² | - |
| 1777622808 | 13.33° C | 77% | 1017.4 hPa | 0 mm | - | 0 W/m² | - |
| 1777622504 | 13.89° C | 77% | 1017.4 hPa | 0 mm | - | 0 W/m² | - |
| 1777622201 | 13.89° C | 74% | 1017.6 hPa | 0 mm | - | 0 W/m² | - |
| 1777621897 | 13.33° C | 75% | 1017.6 hPa | 0 mm | - | 0 W/m² | - |
| 1777621593 | 13.33° C | 78% | 1017.5 hPa | 0 mm | - | 0 W/m² | - |
| 1777621290 | 13.89° C | 77% | 1017.6 hPa | 0 mm | - | 0 W/m² | - |
| 1777620986 | 13.89° C | 74% | 1017.6 hPa | 0 mm | - | 0 W/m² | - |
* Rain latest hour (hover to see other rain measurements)
** Current wind speed in m/s (hover to see current wind gust speed)